カタログに戻る

TITAN 3C TRANSTAGE DEB

運用中HEO
NORAD 26530·DEBRIS·🇺🇸 United States

打ち上げ Dec 21, 1965 から Cape Canaveral Space Force Station

Loading…

次のパス (今後24時間)

TLE

最新Source: Space-Track

元期: Sep 11, 2026, 15:59 UTC

1 26530U 65108AR  26254.66641447 -.00000025  00000-0  94752-4 0  9992
2 26530  27.2334  60.3559 6742805  33.0623 355.0781  2.83233997279032

AllMySatでTITAN 3C TRANSTAGE DEBをリアルタイム追跡

Download on the App Store